[[{"header":{"parameterUnit":"m.s-1","parameterCategory":1,"la1":30.2991,"la2":30.254,"lo1":-89.0895,"lo2":-89.0444,"dy":0.0017,"dx":0.0017,"nx":28,"ny":28,"refTime":"2025-03-27T09:00:00:Z","depth":0,"parameterNumber":2,"parameterNumberName":"U-component_of_WINDS"},"data":[0,0,0,0,0,0,0,0,0,0,0,0,0,0,0,0,0,0,0,0,0,0,0,0,0,0,0,0,0,0,0,0,0,0,0,0,0,0,0,0,0,0,0,0,0,0,0,0,0,0,0,0,0,0,0,0,0,0,-5.2248,-5.2249,0,-5.2322,-5.2323,-5.2324,-5.2297,-5.2295,-5.2293,-5.2292,-5.2368,-5.2371,-5.2375,0,0,0,0,0,0,0,0,0,0,0,0,0,-5.2088,-5.2091,-5.2248,-5.2249,-5.225,-5.2322,-5.2323,-5.2324,-5.2297,-5.2295,-5.2293,-5.2291,-5.2366,-5.2371,-5.2375,0,0,0,0,0,0,0,0,0,0,0,0,0,-5.216,-5.2092,-5.2248,-5.2245,-5.2246,-5.2322,-5.2323,-5.2324,-5.2297,-5.2295,-5.2292,-5.229,-5.2365,-5.237,-5.2376,-5.2459,0,0,-5.2392,-5.2394,0,0,0,0,0,0,0,0,-5.2156,-5.2165,-5.2245,-5.2246,-5.2246,-5.2298,-5.2294,-5.2369,-5.2298,-5.2278,-5.2292,-5.2289,-5.2346,-5.2353,-5.2372,-5.2462,-5.2465,-5.2392,-5.2396,-5.2398,-5.2399,0,0,0,0,0,0,0,-5.2151,-5.2162,-5.2277,-5.2246,-5.2247,-5.2242,-5.2249,-5.2308,-5.2325,-5.2279,-5.2278,-5.2287,-5.2346,-5.2367,-5.2374,-5.2466,-5.2392,-5.2397,-5.24,-5.2402,-5.2633,-5.2636,0,0,0,0,0,0,-5.2145,-5.2158,-5.2275,-5.228,-5.2194,-5.2247,-5.2255,-5.2284,-5.2324,-5.2328,-5.2289,-5.2285,-5.2359,-5.2368,-5.2377,-5.2479,-5.2398,-5.2403,-5.2406,-5.263,-5.2634,-5.2637,0,0,0,0,0,0,-5.2142,-5.2156,-5.2272,-5.2219,-5.2233,-5.2252,-5.2285,-5.2286,-5.2307,-5.2332,-5.2335,-5.2307,-5.2358,-5.2369,-5.2439,-5.2481,-5.2405,-5.241,-5.2627,-5.2631,-5.2635,-5.2682,0,0,0,0,0,0,-5.2137,-5.2155,-5.2185,-5.2219,-5.2236,-5.2332,-5.2287,-5.229,-5.2316,-5.2312,-5.2349,-5.2353,-5.2357,-5.2432,-5.2445,-5.2487,-5.2414,-5.2623,-5.2629,-5.2634,-5.2677,-5.2687,-5.2696,0,0,0,0,0,-5.2132,-5.2194,-5.2186,-5.2201,-5.2274,-5.2334,-5.2344,-5.2347,-5.232,-5.2351,-5.2368,-5.2352,-5.2475,-5.2439,-5.2454,-5.2498,-5.262,-5.2627,-5.2634,-5.2672,-5.2685,-5.2696,0,0,0,0,0,0,-5.2162,-5.2198,-5.219,-5.2265,-5.2297,-5.233,-5.2369,-5.236,-5.24,-5.2394,-5.2397,-5.2405,-5.2478,-5.2495,-5.2455,-5.2583,-5.2544,-5.2554,-5.2568,-5.2581,-5.259,-5.2584,-5.2419,0,0,0,0,0,-5.2178,-5.2224,-5.2253,-5.2317,-5.2333,-5.2349,-5.2375,-5.2376,-5.2408,-5.2422,-5.2443,-5.2476,-5.2523,-5.2553,-5.2597,-5.268,-5.2689,-5.2719,-5.2729,-5.2737,-5.2744,-5.2793,-5.2807,-5.2658,-5.2658,-5.2658,0,0,-5.221,-5.2236,-5.2264,-5.2324,-5.2348,-5.2397,-5.236,-5.2412,-5.2449,-5.2429,-5.2497,-5.2515,-5.2553,-5.2631,-5.2667,-5.2648,-5.2788,-5.2745,-5.2751,-5.2755,-5.2801,-5.2816,-5.2828,-5.2663,-5.2662,-5.2661,0,0,-5.2294,-5.2317,-5.2374,-5.2401,-5.244,-5.2451,-5.2465,-5.2501,-5.2512,-5.2581,-5.2569,-5.2614,-5.2692,-5.2721,-5.2746,-5.2848,-5.2835,-5.2863,-5.2913,-5.2961,-5.2972,-5.2983,-5.3021,-5.3034,-5.2871,-5.2871,-5.2871,0,-5.2328,-5.24,-5.2405,-5.2459,-5.2487,-5.2475,-5.2534,-5.256,-5.2611,-5.2631,-5.261,-5.2712,-5.2737,-5.2823,-5.2849,-5.2869,-5.2887,-5.2856,-5.297,-5.2981,-5.2991,-5.3027,-5.3041,-5.2874,-5.2874,-5.2873,-5.2873,0,-5.2443,-5.2493,-5.2535,-5.2586,-5.262,-5.2676,-5.2691,-5.2724,-5.2724,-5.2738,-5.2811,-5.2841,-5.2892,-5.2913,-5.2912,-5.3001,-5.2988,-5.2969,-5.2929,-5.3008,-5.3042,-5.3055,-5.2878,-5.2877,-5.2876,-5.2875,0,0,-5.2541,-5.2599,-5.2614,-5.264,-5.2685,-5.2724,-5.2783,-5.2834,-5.2864,-5.2902,-5.2951,-5.3022,-5.3006,-5.3034,-5.3037,-5.3079,-5.3161,-5.3055,-5.3056,-5.3074,-5.3264,-5.3278,-5.3293,-5.3155,-5.3157,-5.3159,-5.3261,0,-5.2629,-5.273,-5.2739,-5.283,-5.2879,-5.2871,-5.2923,-5.2957,-5.2974,-5.3019,-5.3038,-5.3088,-5.3062,-5.308,-5.3122,-5.3142,-5.3199,-5.3135,-5.3202,-5.3204,-5.3191,-5.3311,-5.3324,-5.3418,-5.3274,-5.3277,-5.3278,0,-5.2742,-5.2786,-5.2882,-5.2925,-5.2946,-5.2992,-5.3042,-5.3085,-5.3126,-5.3135,-5.3171,-5.3169,-5.3232,-5.3193,-5.3281,-5.3237,-5.3266,-5.3281,-5.3285,-5.329,-5.3245,-5.3319,-5.3448,-5.3462,-5.3299,-5.3297,-5.3296,0,-5.2806,-5.2889,-5.2958,-5.298,-5.3031,-5.3064,-5.3087,-5.3126,-5.3158,-5.3203,-5.3224,-5.3276,-5.3304,-5.3346,-5.336,-5.3329,-5.3448,-5.3409,-5.3459,-5.3459,-5.3481,-5.348,-5.3617,-5.3502,-5.3502,-5.3502,-5.3501,0,-5.2901,-5.2961,-5.2988,-5.303,-5.3099,-5.3111,-5.3178,-5.32,-5.3236,-5.3284,-5.3282,-5.3327,-5.3344,-5.3393,-5.3405,-5.3478,-5.349,-5.3501,-5.3503,-5.35,-5.3499,-5.3518,-5.3511,-5.3505,-5.3505,-5.3504,-5.3503,0,-5.2982,-5.3002,-5.3078,-5.3122,-5.3135,-5.3184,-5.3222,-5.3265,-5.3284,-5.3345,-5.3361,-5.339,-5.3448,-5.3468,-5.3538,-5.3546,-5.3631,-5.3628,-5.3617,-5.3617,-5.3666,-5.3661,-5.3819,-5.3841,-5.3712,-5.3714,-5.3715,0,-5.304,-5.3086,-5.3137,-5.317,-5.3195,-5.3247,-5.3281,-5.3297,-5.3333,-5.3386,-5.3423,-5.3482,-5.3529,-5.3624,-5.3652,-5.3708,-5.3705,-5.3758,-5.3713,-5.3711,-5.3707,-5.3703,-5.3709,-5.3765,-5.3766,-5.3767,-5.3768,0,-5.3142,-5.3152,-5.32,-5.3255,-5.3296,-5.3339,-5.338,-5.3408,-5.343,-5.3471,-5.3532,-5.3569,-5.3643,-5.3702,-5.376,-5.3786,-5.3782,-5.3783,-5.3797,-5.3794,-5.3786,-5.3791,-5.3639,-5.3778,-5.3777,-5.3776,-5.3775,-5.3775,-5.3213,-5.3256,-5.33,-5.3355,-5.339,-5.343,-5.3473,-5.3499,-5.355,-5.3612,-5.3619,-5.3685,-5.3731,-5.3808,-5.3837,-5.3891,-5.3876,-5.3897,-5.3902,-5.3906,-5.3911,-5.3779,-5.3901,-5.3901,-5.3901,-5.3901,-5.39,0,-5.3316,-5.3345,-5.3397,-5.3457,-5.3502,-5.3497,-5.3544,-5.3582,-5.3641,-5.3683,-5.3732,-5.3804,-5.3863,-5.3898,-5.3958,-5.3995,-5.3995,-5.401,-5.4006,-5.4013,-5.392,-5.3901,-5.4009,-5.4009,-5.4009,-5.4009,-5.4009,-5.4009,-5.3374,-5.3446,-5.3462,-5.3553,-5.3582,-5.3647,-5.3675,-5.3714,-5.3749,-5.383,-5.3879,-5.3903,-5.3944,-5.4008,-5.4063,-5.4072,-5.4094,-5.4111,-5.4119,-5.403,-5.4019,-5.4008,-5.3991,-5.4116,-5.4116,-5.4208,-5.4208,-5.4209]},{"header":{"parameterUnit":"m.s-1","parameterCategory":1,"la1":30.2991,"la2":30.254,"lo1":-89.0895,"lo2":-89.0444,"dy":0.0017,"dx":0.0017,"nx":28,"ny":28,"refTime":"2025-03-27T09:00:00:Z","depth":0,"parameterNumber":3,"parameterNumberName":"V-component_of_WINDS"},"data":[0,0,0,0,0,0,0,0,0,0,0,0,0,0,0,0,0,0,0,0,0,0,0,0,0,0,0,0,0,0,0,0,0,0,0,0,0,0,0,0,0,0,0,0,0,0,0,0,0,0,0,0,0,0,0,0,0,0,2.1877,2.1878,0,2.1926,2.1927,2.1927,2.2013,2.2015,2.2016,2.2018,2.2062,2.2062,2.2061,0,0,0,0,0,0,0,0,0,0,0,0,0,2.1854,2.1854,2.1877,2.1878,2.1879,2.1926,2.1927,2.1927,2.2013,2.2015,2.2017,2.2019,2.2062,2.2062,2.2061,0,0,0,0,0,0,0,0,0,0,0,0,0,2.188,2.1854,2.1877,2.1927,2.1932,2.1926,2.1927,2.1927,2.2012,2.2015,2.2017,2.202,2.2062,2.2062,2.2061,2.2008,0,0,2.2059,2.2059,0,0,0,0,0,0,0,0,2.1878,2.188,2.1919,2.1924,2.1929,2.1966,2.1935,2.1954,2.2012,2.1982,2.2018,2.2021,2.2028,2.203,2.2034,2.201,2.2012,2.2059,2.2059,2.2059,2.2059,0,0,0,0,0,0,0,2.1876,2.1879,2.1896,2.192,2.1926,2.1946,2.1952,2.1939,2.199,2.1984,2.1991,2.1996,2.2031,2.2034,2.2035,2.2013,2.2059,2.2059,2.2059,2.2058,2.1951,2.1948,0,0,0,0,0,0,2.1868,2.1877,2.1895,2.1898,2.1909,2.1944,2.1951,2.1952,2.199,2.1999,2.1994,2.2,2.2034,2.2036,2.2037,2.1979,2.2059,2.2058,2.2058,2.1953,2.195,2.1947,0,0,0,0,0,0,2.1867,2.1869,2.1893,2.1889,2.1894,2.1942,2.1942,2.1951,2.1955,2.1997,2.2006,2.1988,2.2036,2.2038,2.2016,2.1982,2.2058,2.2058,2.1956,2.1952,2.1949,2.1861,0,0,0,0,0,0,2.1866,2.1868,2.1849,2.1888,2.1894,2.1871,2.194,2.195,2.1954,2.1962,2.1994,2.2002,2.2038,2.2016,2.2015,2.1982,2.2057,2.1959,2.1954,2.195,2.1868,2.1855,2.1845,0,0,0,0,0,2.1865,2.1821,2.1848,2.1849,2.1871,2.1869,2.1872,2.1916,2.1951,2.1932,2.196,2.2001,2.1986,2.2013,2.2013,2.1979,2.1962,2.1956,2.195,2.1873,2.1858,2.1845,0,0,0,0,0,0,2.1773,2.1827,2.1857,2.1825,2.1842,2.1884,2.1861,2.1899,2.1905,2.1912,2.1965,2.1971,2.1942,2.1959,2.1988,2.1931,2.198,2.1974,2.1921,2.1907,2.1896,2.1892,2.2057,0,0,0,0,0,2.175,2.1746,2.1792,2.1758,2.1766,2.1812,2.1813,2.1846,2.1865,2.1872,2.1898,2.1914,2.1913,2.1911,2.1913,2.1871,2.1879,2.1848,2.1836,2.1827,2.182,2.1801,2.1787,2.1929,2.1929,2.1929,0,0,2.17,2.1729,2.1722,2.1741,2.1758,2.1752,2.1817,2.1807,2.1802,2.187,2.1851,2.1871,2.1892,2.186,2.1848,2.1873,2.1784,2.1819,2.1811,2.181,2.1793,2.178,2.1768,2.1925,2.1926,2.1926,0,0,2.1607,2.1628,2.1604,2.1621,2.1648,2.1679,2.1673,2.171,2.1726,2.1709,2.1761,2.1755,2.1752,2.1766,2.1772,2.1687,2.1724,2.1685,2.1625,2.1605,2.1594,2.1584,2.1554,2.1542,2.1679,2.1679,2.1679,0,2.1541,2.1535,2.1586,2.1573,2.158,2.1644,2.1619,2.1633,2.1657,2.166,2.1689,2.1688,2.1707,2.168,2.1659,2.1662,2.1657,2.1681,2.1591,2.1582,2.1574,2.1546,2.1534,2.1674,2.1675,2.1675,2.1676,0,2.1453,2.1448,2.1425,2.145,2.1454,2.1435,2.1482,2.148,2.1513,2.1541,2.1523,2.1549,2.1557,2.1553,2.1584,2.153,2.1546,2.1582,2.1632,2.1555,2.1529,2.1519,2.1667,2.1669,2.167,2.1672,0,0,2.1301,2.1358,2.1348,2.1361,2.1397,2.1393,2.1377,2.1388,2.1385,2.14,2.1388,2.1386,2.1421,2.1428,2.1461,2.1443,2.1375,2.1483,2.1484,2.1462,2.1318,2.129,2.1277,2.1401,2.1399,2.1398,2.1317,0,2.1215,2.1193,2.1239,2.1205,2.1201,2.1264,2.125,2.1269,2.1296,2.1295,2.1323,2.1321,2.1367,2.1372,2.1358,2.1386,2.1347,2.1393,2.1389,2.1388,2.1381,2.1264,2.1233,2.1156,2.1307,2.1305,2.1304,0,2.1111,2.1124,2.109,2.113,2.113,2.1117,2.1132,2.1131,2.1154,2.1175,2.1184,2.1224,2.1211,2.126,2.1242,2.1273,2.1274,2.1288,2.1286,2.1287,2.1341,2.1261,2.1132,2.112,2.1289,2.129,2.1291,0,2.1003,2.1013,2.0995,2.1004,2.1049,2.1039,2.1057,2.1084,2.1088,2.11,2.1103,2.1112,2.1117,2.1123,2.1165,2.1197,2.1142,2.1195,2.1158,2.1157,2.1142,2.1143,2.1011,2.1144,2.1144,2.1144,2.1144,0,2.0902,2.0879,2.0947,2.0936,2.0912,2.0966,2.094,2.0964,2.0988,2.0982,2.1035,2.1028,2.1084,2.1082,2.1114,2.1095,2.1097,2.1112,2.1121,2.1107,2.1105,2.1108,2.1114,2.1141,2.1142,2.1142,2.1143,0,2.0777,2.0823,2.0807,2.0853,2.0864,2.0844,2.0882,2.0873,2.0904,2.0895,2.0896,2.0944,2.0945,2.0988,2.0997,2.1019,2.0986,2.1005,2.0978,2.0984,2.0945,2.0948,2.0811,2.0796,2.0937,2.0936,2.0935,0,2.0709,2.0694,2.0739,2.074,2.0756,2.0756,2.0762,2.0814,2.0817,2.0845,2.0832,2.0839,2.0846,2.0845,2.0879,2.0887,2.0906,2.0858,2.0908,2.0895,2.0906,2.0906,2.0905,2.0847,2.0845,2.0844,2.0842,0,2.0584,2.0608,2.0615,2.063,2.0635,2.0649,2.0666,2.0663,2.0721,2.0722,2.0725,2.0731,2.0743,2.0748,2.0763,2.078,2.082,2.0827,2.0819,2.0804,2.079,2.0797,2.0949,2.0829,2.0831,2.0832,2.0832,2.0833,2.0486,2.0475,2.0506,2.0512,2.0531,2.0547,2.0541,2.0573,2.0577,2.0592,2.0622,2.0621,2.0647,2.0671,2.0685,2.0684,2.0709,2.0696,2.0693,2.069,2.0682,2.0791,2.0687,2.0687,2.0688,2.0688,2.0688,0,2.0363,2.0387,2.0392,2.0416,2.0421,2.0462,2.0483,2.0484,2.0483,2.0504,2.0512,2.0516,2.0522,2.0558,2.0568,2.0561,2.0579,2.0561,2.0562,2.0566,2.066,2.0666,2.0546,2.0546,2.0546,2.0546,2.0546,2.0546,2.03,2.0285,2.0313,2.0308,2.0331,2.0332,2.0341,2.0355,2.0373,2.0377,2.0383,2.0407,2.0435,2.0448,2.0455,2.0465,2.0466,2.0442,2.0458,2.0545,2.0559,2.0572,2.0578,2.0442,2.0442,2.0364,2.0364,2.0363]}]]